Regional Weather Roundup
Issued by NWS State College, PA

Home | Current Version | Previous Version | Text Only | Print | Product List | Glossary On
Versions: 1 2 3 4 5 6 7 8 9 10 11 12 13 14 15 16 17 18 19 20 21 22 23 24 25 26 27 28 29 30 31 32 33 34 35 36 37 38 39 40 41 42 43 44 45 46 47 48 49 50
000
ASUS41 KCTP 041610
RWRCTP

REGIONAL WEATHER ROUNDUP
NATIONAL WEATHER SERVICE STATE COLLEGE PA
1200 PM EDT MON MAY 04 2015

Note: "fair" indicates few or no clouds below 12,000 feet with no
significant weather and/or obstructions to visibility.

* = STATION THAT DOES NOT REPORT PRECIPITATION /E.G. RAIN...SNOW...ETC/
    THUNDER OR FOG.

PAZ002>004-007>009-013>016-020>023-029>032-041700-
WESTERN PENNSYLVANIA

CITY           SKY/WX    TMP DP  RH WIND       PRES   REMARKS
ERIE           MOSUNNY   78  45  30 SW22G33   30.08F
MEADVILLE      SUNNY     76  45  33 SW13G21   30.14F
FRANKLIN*      SUNNY     77  45  31 SW20G26   30.18S
NEW CASTLE     FAIR      80  48  32 SW13G18   30.17S
BEAVER COUNTY  SUNNY     75  45  33 SW14G22   30.18S
BUTLER*        SUNNY     75  45  33 W15G24    30.20S
PITTSBURGH INT PTSUNNY   77  44  30 SW16G24   30.19R
PITTSBURGH     SUNNY     77  40  26 W15G21    30.19S
INDIANA*       SUNNY     75  45  33 W14G20    30.23F
LATROBE        MOSUNNY   75  46  35 SW12G17   30.23S
WASHINGTON CO* SUNNY     77  46  33 SW15G21   30.22S
$$

PAZ004>006-010>012-017>019-024>028-033>037-041-042-045-046-049>053-041700-
CENTRAL PENNSYLVANIA

CITY           SKY/WX    TMP DP  RH WIND       PRES   REMARKS
BRADFORD       SUNNY     73  37  27 SW18G26   30.17F
DUBOIS         SUNNY     76  37  24 SW20G31   30.19S
CLEARFIELD       N/A    N/A N/A N/A MISG      30.19F
JOHNSTOWN      SUNNY     73  38  27 W9G17     30.23S
ALTOONA        SUNNY     78  39  24 S13G20    30.21F
STATE COLLEGE  SUNNY     77  41  27 S13G20    30.19F
WILLIAMSPORT   SUNNY     78  44  29 S10G18    30.16F
SELINSGROVE    SUNNY     75  53  46 SE9       30.19F
FT INDIANTOWN  SUNNY     79  46  31 SW10      30.20F
CAPITAL CITY   SUNNY     80  47  31 W9        30.19F
HARRISBURG     MOSUNNY   81  48  31 S6        30.19F
YORK           SUNNY     79  49  34 SW14G20   30.20F
$$

PAZ038>040-043-044-047-048-054-055-060>062-067>071-041700-
EASTERN PENNSYLVANIA

CITY           SKY/WX    TMP DP  RH WIND       PRES   REMARKS
SCRANTON       SUNNY     81  38  21 SW14G26   30.18F
MOUNT POCONO   PTSUNNY   76  35  22 SW15G21   30.23F
ALLENTOWN      SUNNY     80  45  28 SW10      30.20F
QUAKERTOWN*    SUNNY     81  46  30 SW8       30.22F
READING        SUNNY     81  44  27 SW13      30.19F
LANCASTER      SUNNY     79  46  31 VRB6      30.20F
COATESVILLE    SUNNY     79  45  29 SW6       30.24S
POTTSTOWN      SUNNY     80  43  26 SW7       30.22F
BLUE BELL      SUNNY     81  46  30 SW7G16    30.21F
DOYLESTOWN     SUNNY     79  43  27 SW8G16    30.21F
WILLOW GROVE   NOT AVBL
NORTH PHILA    SUNNY     81  42  25 VRB7      30.23F
PHILADELPHIA   MOSUNNY   80  47  31 SW9       30.23F
$$


USA.gov is the U.S. government's official web portal to all federal, state and local government web resources and services.